This demonstration page uses our WeatherBlox Daily Observations layout. Learn more.

Left ArrowRight Arrow

Hourly Observations for January 27, 2017

Temp ( °F °C ) Dew Point ( °F °C ) Humidity (%) Winds ( mph kmh ) Pressure ( in mb ) Visibility ( mi km ) Precip ( " mm )
12:53 am 00:53 Clear 31 -0.6 17 -8.3 56 56 N 8 13 30.20 1023 10 16 0.00 0.00
1:53 am 01:53 Clear 29 -1.7 17 -8.3 61 61 N 7 11 30.20 1023 10 16 0.00 0.00
2:53 am 02:53 Clear 28 -2.2 17 -8.3 63 63 N 8 13 30.20 1023 10 16 0.00 0.00
3:53 am 03:53 Clear 29 -1.7 19 -7.2 66 66 N 8 13 30.20 1023 10 16 0.00 0.00
4:53 am 04:53 Cloudy 31 -0.6 21 -6.1 67 67 N 9 15 30.19 1022 10 16 0.00 0.00
5:53 am 05:53 Cloudy 32 0 22 -5.6 66 66 NNE 7 11 30.21 1023 10 16 0.00 0.00
6:53 am 06:53 Cloudy 33 0.6 20 -6.7 58 58 NE 8 13 30.24 1024 10 16 0.00 0.00
7:53 am 07:53 Partly Cloudy 28 -2.2 20 -6.7 72 72 N 7 11 30.29 1026 10 16 0.00 0.00
8:53 am 08:53 Sunny 34 1.1 20 -6.7 56 56 NE 7 11 30.29 1026 10 16 0.00 0.00
9:53 am 09:53 Mostly Sunny 37 2.8 20 -6.7 50 50 E 10 17 30.32 1027 10 16 0.00 0.00
10:53 am 10:53 Cloudy 40 4.4 21 -6.1 47 47 E 8 13 30.33 1027 10 16 0.00 0.00
11:53 am 11:53 Cloudy 43 6.1 22 -5.6 43 43 E 13 20 30.32 1027 10 16 0.00 0.00
12:53 pm 12:53 Cloudy 46 7.8 22 -5.6 38 38 E 12 19 30.30 1026 10 16 0.00 0.00
1:53 pm 13:53 Cloudy 44 6.7 22 -5.6 41 41 E 12 19 30.28 1026 10 16 0.00 0.00
2:53 pm 14:53 Cloudy 43 6.1 21 -6.1 42 42 E 14 22 30.27 1025 10 16 0.00 0.00
3:53 pm 15:53 Cloudy 42 5.6 23 -5 47 47 E 13 20 30.28 1025 10 16 0.00 0.00
4:53 pm 16:53 Cloudy 39 3.9 27 -2.8 62 62 NNE 18 30 30.32 1027 10 16 0.00 0.00
5:27 pm 17:27 Cloudy with Light Snow 34 1.1 33 0.6 97 97 NNE 15 24 30.42 1030 2 3 0.00 0.03
5:34 pm 17:34 Cloudy with Light Snow 34 1 34 1 100 100 NE 10 17 30.42 1030 1 2 0.00 0.00
5:53 pm 17:53 Cloudy with Light Snow 33 0.6 33 0.6 100 100 ENE 7 11 30.36 1028 2 2 0.00 0.03
6:01 pm 18:01 Cloudy with Light Snow 33 0.6 33 0.6 100 100 ENE 8 13 30.45 1031 2 2 0.01 0.25
6:53 pm 18:53 Cloudy with Light Snow 32 0 32 0 100 100 E 3 6 30.40 1029 1 2 0.03 0.76
7:13 pm 19:13 Cloudy with Light Snow 32 0 32 0 100 100 E 3 6 30.50 1033 1 2 0.01 0.25
7:44 pm 19:44 Cloudy with Light Snow 32 0 32 0 100 100 SE 6 9 30.48 1032 2 3 0.00 0.00
7:53 pm 19:53 Cloudy with Mist and Fog 33 0.6 32 0 96 96 SE 7 11 30.40 1029 3 5 0.01 0.25
8:01 pm 20:01 Cloudy with Mist and Fog 33 0.6 32 0 96 96 SSE 8 13 30.45 1031 5 8 0.00 0.00
8:53 pm 20:53 Cloudy 33 0.6 32 0 96 96 SSE 6 9 30.40 1030 7 11 0.00 0.00
9:53 pm 21:53 Mostly Clear 32 0 32 0 100 100 SSW 5 7 30.40 1030 7 11 0.00 0.00
10:53 pm 22:53 Mostly Cloudy with Mist and Fog 32 0 32 0 100 100 W 5 7 30.41 1030 5 8 0.00 0.00
11:53 pm 23:53 Clear with Mist and Fog 31 -0.6 30 -1.1 96 96 W 6 9 30.42 1030 5 8 0.00 0.00

Powered by AerisWeather